Voltar ao catálogo

COSMOS 646

AtivoMilitarLEO
NORAD 7270·PAYLOAD·🇷🇺 Russia

Lançado Apr 23, 1974 de Plesetsk Cosmodrome

Loading…

Próximas Passagens (próximas 24 horas)

TLE

AtualizadoSource: Space-Track

Época: Sep 14, 2026, 14:07 UTC

1  7270U 74024F   26257.58833729 -.00000001  00000-0  93683-4 0  9995
2  7270  74.0186 310.6243 0052401 279.2108 152.3382 12.55028974400409

Acompanhe COSMOS 646 em tempo real com AllMySat

Download on the App Store